Погода Баяндай

Погода Баяндай : погода сейчас, прогноз погоды и архив. Всё, что Вы хотите узнать о погоде Баяндай!

Хотите узнать прогноз погоды Баяндай? Тогда Вам сюда: Погода Баяндай

Поиск расширенной информации на нашем сайте:

Полезная информация: хлорка для бассейна
Свадебные церемонии прокат авто в Москве

Другие новости

Новости СМИ2

Главная страница сайта

Новости сайта

02.10.2013

Напоминаем, что на нашем новом сайте вы можете получить высокодетализированные прогнозы погоды по пунктам России, СНГ и мира (включающие важные для авиации метеовеличины, такие как направление и скорость ветра, видимость, явления погоды, количество и форма облачности, нижняя и верхняя граница облачности), а также ознакомиться с разнообразными материалами по авиационной метеорологии и подборкой полезных ссылок на эту тему.

Сайт Метеоцентр.Азия посвящён разработке технологий оптимизации авиаметеорологического обслуживания, включая проектирование и перспективное создание нескольких автоматизированных авиаметеорологических систем:
- система выпуска высокодетальных прогностических карт явлений погоды для нижнего воздушного пространства по России и ближнему зарубежью;
- система верификации прогнозов TAF (выпускаемых синоптиками официальных АМСГ РФ и ближнего зарубежья) и AUTOTAF (выпускаемых сайтом Метеоцентр.Азия) - выявление ошибок, онлайн-сопоставление с фактической погодой METAR, автоматическое внесение коррективов в прогнозы при резком отклонении фактической погоды от прогноза, подсчёт оправдываемости прогнозов по элементам и в целом;
- система обработки, анализа и отображения авиаметеорологической информации для применения провайдерами метеорологической информации.

Рекомендуем: Issuu автоматические Роботы очистители для бассейнов новаяволна.рф.

Погода Баяндай - сегодня

Время (UTC), дата Ветер
(°,м/с) 
Видим.   Явления Облачность Т
(°С)
Тd
(°С)
f(%) Тe
(°С)
Pmin
(гПа)
dP
(гПа)
Po
(мм)
O2
(г/м3)
Тmin Tmax R s Состояние
почвы
15 16.02.17 тихо ()   20000 м    ясно 
-19.3 -20.5 90 -19  1036.2  -1.4  702  306           
18 16.02.17 050 (СВ) 20000 м    ясно 
-22.1 -23.4 89 -25  1035.6  -1.6  701  309           
21 16.02.17 040 (СВ) 20000 м    ясно 
-21.9 -23.2 89 -25  1034.1  -1.2  701  309           
00 17.02.17 030 (СВ) 20000 м    6/0 верхняя 
[Ci fib]
-25.5 -27.3 85 -29  1035.3  -0.4  700  313  -26      27  равномерный
сухой снег
100% 
03 17.02.17 030 (СВ) 20000 м    3/0 верхняя 
[Ci fib]
-23.6 -25.5 84 -27  1033.9  -0.5  699  310           
06 17.02.17 050 (СВ) 20000 м    1/0 верхняя 
[Ci fib]
-18.1 -19.3 90 -21  1030.3  -1.2  698  303           
09 17.02.17 040 (СВ) 20000 м    ясно 
-16.5 -20.7 70 -19  1027.9  -1.6  697  300           
12 17.02.17 040 (СВ) 20000 м    1/0 верхняя 
[Ci fib]
-18.2 -22.3 70 -21  1026.7  -1.6  696  302    -16.3       
15 17.02.17 050 (СВ) 20000 м    ясно 
-17.6 -21.8 70 -18  1022.8  -3.5  693  300           
18 17.02.17 070 (В) 20000 м    10/0 верхняя 
[Ci fib]
-16.6 -21.6 65 -19  1016.9  -4.9  690  297           
21 17.02.17 040 (СВ) 20000 м    10/0 верхняя 
[Cs]
-18.7 -22.8 70 -23  1013.4  -3.9  687  299           
00 18.02.17 100 (В) 20000 м    10/0 средняя 
[Ac und]
-15.5 -21.5 60 -16  1010.7  -1.3  686  294  -19.7      27  равномерный
сухой снег
100% 
03 18.02.17 230 (ЮЗ) 20000 м    10/0 средняя 
[Ac As]
-13.9 -20 60 -14  1000.6  0.5  686  293           
06 18.02.17 240 (ЮЗ) 20000 м    10/0 средняя 
[Ac As]
-11.8 -18 60 -16  1011.6  1.6  687  291           
09 18.02.17 320 (СЗ) 20000 м  позёмок{снег}  8/5 1000 м верхняя 
[Cu med, cong|Ci fib]
-10.3 -16.6 60 -13  1015.9  4.5  691  290           
12 18.02.17 310 (СЗ) 20000 м  {снег}  10/0 средняя, верхняя 
[Ac As|Ci fib]
-12 -17.2 65 -14  1021.1  4.1  694  294    -9  0.0     
15 18.02.17 330 (СЗ) 20000 м    1/0 верхняя 
[Ci fib]
-13.7 -18 70 -17  1025.2  3.1  696  297           
18 18.02.17 330 (СЗ) 20000 м    ясно 
-14.4 -18.7 70 -19  1027.5  1.8  698  298           
21 18.02.17 260 (З) 20000 м    ясно 
-17.7 -19.6 85 -18  1031  699  303           
00 19.02.17 210 (ЮЗ) 4000 м  дымка  ясно 
-22 -23.9 84 -22  1034.6  1.7  700  308  -22.5      27  равномерный
сухой снег
100% 
03 19.02.17 200 (Ю) 10 км  слаб. снег  10/0 средняя 
[Sc|Ac As]
-19 -20.2 90 -22  1034.9  1.3  701  305  -23         
06 19.02.17 200 (Ю) 20000 м  {снег}  ясно 
-14 -16 85 -16  1032.3  -0.5  701  299           
09 19.02.17 240 (ЮЗ) 20000 м    ясно 
-11.7 -17 65 -12  1030.3  -1  700  296           
12 19.02.17 030 (СВ) 20000 м    3/0 верхняя 
[Ci fib]
-16 -19.4 75 -18  1030.5  -1.3  699  301    -10.9  0.0     
15 19.02.17 040 (СВ) 20000 м    ясно 
-15.3 -18.7 75 -19  1028.6  -1.5  698  299           
Время (UTC), дата Ветер
(°,м/с) 
Видим.   Явления Облачность Т
(°С)
Тd
(°С)
f(%) Тe
(°С)
Pmin
(гПа)
dP
(гПа)
Po
(мм)
O2
(г/м3)
Тmin Tmax R s Состояние
почвы

Для получения пояснительной информации подведите курсор к названию столбца.

ПОГОДА Баяндай - архив

Всё, что Вы хотите узнать о погоде Баяндай - удобно и подробно!

Выберите нужную дату (начиная с 1 января 2015* года) и нажмите кнопку "Найти".
Будут отображены архивные сводки погоды по пункту Баяндай, начиная с указанной даты.


Отображать данные в формате CSV (для использования в таблицах Excel)


Внимание! Наш архив погоды предназначен исключительно для личного некоммерческого использования в познавательных целях. Если Вам необходимы официальные справки о состоянии погоды (для производственных, юридических, коммерческих и т.п. целей), обращайтесь в органы Росгидромета.

*Примечание: данная дата относится к архиву по метеостанциям СССР (Россия, СНГ, Балтия).
Архив по метеостанциям Зарубежной Европы и Азии (кроме Китая) хранится 10 дней, по другим регионам земного шара (Китай, Африка, Америка, Австралия, Океания) - 1 день.

Баяндай - район местоположения метеостанции


Название, широта, долгота, высота метеостанции:
Баяндай 53.1°ш. 105.5°д. 762 м над ур. моря [Российская Федерация]

Дополнительная информация

В oтличие oт бoльшинства пoгoдных сайтoв мы публикуем пoдрoбную метеoинфoрмацию в детальнoм прoфессиoнальнoм фoрмате.

Характеристики температуры и влажнoсти вoздуха измеряются на высoте 2 м в тени вдали oт зданий и деревьев.
Скoрoсть ветра измеряется на высoте 10 м (на урoвне рoста челoвека скoрoсть ветра ниже в 1.5-2 раза). Если метеoстанция нахoдится в гoрoде или в лесу, тo скoрoсть ветра занижена на 2-4 м/с пo сравнению с oткрытым местoм. Скoрoсть ветра над акватoриями крупных рек и oзёр, а также на вершинах хoлмoв на 2-5 м/с выше, чем в oбычных услoвиях.
Атмoсфернoе давление в разных тoчках местнoсти мoжет значительнo oтличаться oт давления на метеoстанции, в зависимoсти oт услoвий рельефа (при пoдъёме на 10 м давление пoнижается примернo на 1 мм рт.ст.).